Location: Maccacari
(45.1333°N, 11.1333°E)
Time: 01:53:41
(UTC+00:00)

A-11 Canister half - Pass Details

Date: 22 January 2021
Orbit: 1525 x 1684 km, 47.3° (Epoch: 07 March)

Event Time Altitude Azimuth Distance (km) Brightness Sun altitude
Rises 13:06:07 0° 207° (SSW) 4,660 13.1 21.5°
Reaches altitude 10° 13:09:25 10° 199° (SSW) 3,686 13.1 21.3°
Maximum altitude 13:17:38 37° 136° (SE) 2,234 10.3 20.6°
Drops below altitude 10° 13:26:02 10° 74° (ENE) 3,774 10.7 19.9°
Sets 13:29:26 0° 67° (ENE) 4,783 11.1 19.6°
